C/2019 NJ3 ( Lemmon )

Japanese version
Home page
Updated on November 3, 2020

---------------------------------------------------------------------

* Profile

Discovery Date July 5, 2019
Magnitude 20.5 mag
Discoverer Mt. Lemmon Survey

* Orbital Elements

Epoch 2020 Nov. 7.0 TT = JDT 2459160.5
T 2020 Oct. 22.28800 TT                                 Rudenko
q   4.3616376            (2000.0)            P               Q
z  -0.0001770      Peri.  246.84201     +0.21993182     -0.76829184
 +/-0.0000037      Node   142.45529     +0.03121604     +0.62144541
e   1.0007719      Incl.   99.43872     -0.97501567     -0.15340549
From 34 observations 2019 June 5-2020 Oct. 15, mean residual 0".5.

* Magnitudes Graph

        m1 = 3.5 + 5 log d + 17.5 log r

---------------------------------------------------------------------

The orbital elements are published on M.P.E.C. 2020-U96.
The magnitudes graphs are made with Comet for Windows.

---------------------------------------------------------------------

Copyright(C) Seiichi Yoshida (comet@aerith.net). All rights reserved.